Flag for Germany Weather past 2 weeks in Leverkusen, North Rhine-Westphalia, Germany

Now
55 °F

Sunny.


Feels Like: 55 °F
Forecast: 55 / 76 °F
Wind: 2 mph from Northeast

Location: Koeln / Bonn

Current Time: Sep 3, 2014 at 9:17:29 AM

Latest Report: Sep 3, 2014 at 8:50 AM


Visibility: 10 mi

Pressure: 30.18 "Hg

Humidity: 94%

Dew point: 54 °F

Location of LeverkusenLocation

Historic Weather in Leverkusen — Graph

°F

Leverkusen temperature yesterday

Maximum temperature yesterday: 70 °F (at 3:20 PM)
Minimum temperature yesterday: 48 °F (at 5:50 AM)
Average temperature yesterday: 59 °F

Past Weeks' High & Low Weather Summary

 TemperatureHumidityPressure
High73 °F (Aug 28, 1:20 PM)100% (Aug 20, 7:20 AM)30.21 "Hg (Aug 20, 7:20 AM)
Low45 °F (Aug 20, 5:20 AM)43% (Aug 20, 4:20 PM)29.62 "Hg (Aug 26, 4:50 AM)
Average58 °F82%29.99 "Hg
* Reported Aug 19 8:20 AM — Sep 3 8:20 AM, Leverkusen, Weather by CustomWeather, © 2014

Note: Actual official high and low records may vary slightly from our data, if they occured in-between our weather recording intervals... More about our weather records

Advertising

Leverkusen weather history for previous 24 hours

 ConditionsComfort  
Time TempWeatherWind HumidityBarometerVisibility
8:20 AM
Sep 3
52 °FSunny.3 mph100%30.21 "Hg10 mi
7:50 AM50 °FFog.1 mph100%30.21 "HgN/A
7:20 AM48 °FSleet. Overcast.1 mph94%30.21 "HgN/A
6:50 AM50 °FCool.1 mph94%30.21 "HgN/A
6:20 AM50 °FCool.2 mph94%30.21 "HgN/A
5:50 AM50 °FFog.2 mph94%30.18 "HgN/A
5:20 AM52 °FFog.3 mph94%30.18 "HgN/A
4:50 AM50 °FFog.3 mph100%30.18 "HgN/A
4:20 AM52 °FFog.3 mph100%30.18 "HgN/A
3:50 AM52 °FFog.3 mph94%30.21 "HgN/A
3:20 AM54 °FFog.3 mph94%30.21 "HgN/A
2:50 AM54 °FFog.2 mph94%30.21 "HgN/A
2:20 AM54 °FFog.1 mph94%30.21 "HgN/A
1:50 AM52 °FFog.3 mph94%30.21 "HgN/A
1:20 AM55 °FFog.2 mph94%30.21 "HgN/A
12:50 AM55 °FFog.3 mph94%30.21 "HgN/A
12:20 AM55 °FFog.2 mph94%30.21 "HgN/A
11:50 PM
Sep 2
55 °FClear.2 mph94%30.21 "Hg10 mi
11:20 PM57 °FFog.1 mph88%30.21 "HgN/A
10:50 PM55 °FFog.1 mph94%30.21 "HgN/A
10:20 PM57 °FFog.2 mph94%30.21 "HgN/A
9:50 PM59 °FClear.2 mph88%30.21 "Hg10 mi
9:20 PM61 °FClear.3 mph83%30.18 "Hg10 mi
8:50 PM61 °FSunny.7 mph88%30.18 "Hg10 mi
8:20 PM63 °FPartly sunny.2 mph83%30.18 "HgN/A
7:50 PM63 °FPartly sunny.3 mph83%30.18 "HgN/A
7:20 PM64 °FScattered clouds.9 mph78%30.18 "HgN/A
6:50 PM66 °FPartly sunny.9 mph73%30.18 "HgN/A
6:20 PM66 °FPartly sunny.8 mph73%30.15 "HgN/A
5:50 PM68 °FPartly sunny.8 mph69%30.15 "HgN/A
5:20 PM68 °FPartly sunny.7 mph69%30.15 "HgN/A
4:50 PM68 °FPartly sunny.9 mph69%30.15 "HgN/A
4:20 PM68 °FPartly sunny.6 mph69%30.15 "HgN/A
3:50 PM68 °FScattered clouds.8 mph64%30.15 "HgN/A
3:20 PM70 °FScattered clouds.9 mph60%30.15 "HgN/A
2:50 PM68 °FPartly sunny.7 mph60%30.15 "HgN/A
2:20 PM68 °FScattered clouds.8 mph60%30.15 "HgN/A
1:50 PM68 °FPassing clouds.7 mph56%30.15 "HgN/A
1:20 PM68 °FPassing clouds.8 mph64%30.15 "HgN/A
12:50 PM66 °FScattered clouds.9 mph60%30.15 "HgN/A
12:20 PM66 °FScattered clouds.8 mph60%30.18 "HgN/A
11:50 AM64 °FPassing clouds.8 mph68%30.18 "HgN/A
11:20 AM63 °FPassing clouds.3 mph73%30.18 "HgN/A
10:50 AM63 °FPassing clouds.3 mph77%30.18 "HgN/A
10:20 AM61 °FSunny.2 mph83%30.18 "Hg10 mi
9:50 AM57 °FPassing clouds.3 mph88%30.18 "HgN/A
9:20 AM55 °FSnow. Light fog.3 mph94%30.15 "HgN/A
Weather by CustomWeather, © 2014

See weather overviewHow to use our weather pages